Weather History for St. Joseph, MO

Change the Weather History Date:

Saturday, November 10, 2012

  Actual Average Record
Temperature  
Mean Temperature 70 °F 45 °F  
Max Temperature 75 °F 56 °F 82 °F (1927)
Min Temperature 65 °F 34 °F 16 °F (1960)
Degree Days  
Heating Degree Days 0 20  
Month to date heating degree days 139 183  
Since 1 July heating degree days 640 602  
Cooling Degree Days 5 0  
Month to date cooling degree days 5 0  
Year to date cooling degree days 1565 1220  
Growing Degree Days 20 (Base 50)    
Moisture  
Dew Point 54 °F    
Average Humidity 61    
Maximum Humidity 73    
Minimum Humidity 49    
Precipitation  
Precipitation T in 0.05 in 0.43 in (1940)
Month to date precipitation 0.19 0.70  
Year to date precipitation 20.71 33.23  
Sea Level Pressure  
Sea Level Pressure 29.69 in    
Wind  
Wind Speed 21 mph (South)    
Max Wind Speed 35 mph    
Max Gust Speed 45 mph    
Visibility 10 miles    
Events Rain    
T = Trace of Precipitation, MM = Missing Value Source: NWS Daily Summary

Daily Weather History Graph

Daily Weather History Graph

Search for Another Location

Airport:

Trip Planner

Search our weather history database for the weather conditions in past years. The results will help you decide how hot, cold, wet, or windy it might be!

Date:

Astronomy

Nov. 10, 2012 Rise Set
Actual Time 6:59 AM CST 5:07 PM CST
Civil Twilight 6:30 AM CST 5:36 PM CST
Nautical Twilight 5:58 AM CST 6:08 PM CST
Astronomical Twilight 5:26 AM CST 6:40 PM CST
Moon 3:05 AM CST (11/10) 2:54 PM CST (11/10)
Length of Visible Light 11h 05m
Length of Day
10h 08m
Waning Crescent, 14% of the Moon is Illuminated
Nov 10
Waning Crescent
Nov 13
New
Nov 20
First Quarter
Nov 28
Full
Dec 6
Last Quarter

Hourly Weather History & Observations

Time (CST) Temp. Dew Point Humidity Pressure Visibility Wind Dir Wind Speed Gust Speed Precip Events Conditions
12:53 AM 66.0 °F 55.9 °F 70% 29.73 in 10.0 mi South 13.8 mph - N/A   Clear
1:53 AM 66.9 °F 55.9 °F 68% 29.72 in 10.0 mi South 17.3 mph 27.6 mph N/A   Clear
2:53 AM 66.9 °F 55.9 °F 68% 29.72 in 10.0 mi South 18.4 mph 26.5 mph N/A   Clear
3:53 AM 66.9 °F 55.0 °F 66% 29.70 in 10.0 mi South 18.4 mph 25.3 mph N/A   Clear
4:53 AM 66.9 °F 55.0 °F 66% 29.71 in 10.0 mi South 18.4 mph 24.2 mph N/A   Clear
5:53 AM 66.0 °F 55.0 °F 68% 29.72 in 10.0 mi South 16.1 mph - N/A   Clear
6:53 AM 66.0 °F 54.0 °F 65% 29.72 in 10.0 mi South 16.1 mph - N/A   Clear
7:53 AM 66.9 °F 54.0 °F 63% 29.73 in 10.0 mi South 19.6 mph 25.3 mph N/A   Clear
8:53 AM 69.1 °F 54.0 °F 58% 29.73 in 10.0 mi South 20.7 mph 31.1 mph N/A   Clear
9:53 AM 71.1 °F 54.0 °F 55% 29.73 in 10.0 mi SSW 25.3 mph 36.8 mph N/A   Clear
10:53 AM 70.0 °F 55.0 °F 59% 29.72 in 10.0 mi South 21.9 mph 32.2 mph N/A   Scattered Clouds
11:53 AM 71.1 °F 57.0 °F 61% 29.70 in 10.0 mi South 19.6 mph 23.0 mph 0.00 in Rain Light Rain
12:53 PM 69.1 °F 57.9 °F 68% 29.68 in 10.0 mi South 15.0 mph 27.6 mph 0.00 in Rain Light Rain
1:53 PM 73.9 °F 57.0 °F 55% 29.65 in 10.0 mi South 27.6 mph 32.2 mph 0.00 in   Clear
2:53 PM 73.9 °F 55.0 °F 52% 29.65 in 10.0 mi South 24.2 mph 36.8 mph N/A   Mostly Cloudy
3:53 PM 72.0 °F 55.9 °F 57% 29.65 in 10.0 mi South 19.6 mph 27.6 mph N/A   Mostly Cloudy
4:53 PM 70.0 °F 55.9 °F 61% 29.64 in 10.0 mi South 17.3 mph 24.2 mph 0.00 in   Overcast
5:53 PM 70.0 °F 52.0 °F 53% 29.65 in 10.0 mi South 20.7 mph 28.8 mph 0.00 in   Partly Cloudy
6:53 PM 71.1 °F 51.1 °F 49% 29.64 in 10.0 mi South 19.6 mph 28.8 mph N/A   Partly Cloudy
7:53 PM 70.0 °F 50.0 °F 49% 29.65 in 10.0 mi South 19.6 mph 32.2 mph N/A   Clear
8:53 PM 70.0 °F 51.1 °F 51% 29.63 in 10.0 mi South 24.2 mph 36.8 mph N/A   Clear
10:53 PM 69.1 °F 52.0 °F 54% 29.63 in 10.0 mi South 28.8 mph 43.7 mph N/A   Clear
11:53 PM 69.1 °F 52.0 °F 54% 29.66 in 10.0 mi SSW 21.9 mph 39.1 mph N/A   Mostly Cloudy